Weather History for EDMA - October, 2012

Change the Weather History Date:

Wednesday, October 17, 2012

  Actual Average Record
Temperature  
Mean Temperature 54 °F -  
Max Temperature 65 °F 47 °F 69 °F (1998)
Min Temperature 43 °F 35 °F 30 °F (1999)
Degree Days  
Heating Degree Days 11    
Growing Degree Days 4 (Base 50)    
Moisture  
Dew Point 44 °F    
Average Humidity 75    
Maximum Humidity 100    
Minimum Humidity 46    
Precipitation  
Precipitation 0.00 in - - ()
Sea Level Pressure  
Sea Level Pressure 29.97 in    
Wind  
Wind Speed 4 mph ()    
Max Wind Speed 9 mph    
Max Gust Speed -    
Visibility 6.1 miles    
Events Rain    
Averages and records for this station are not official NWS values.
T = Trace of Precipitation, MM = Missing Value Source: Averaged Metar Reports

Daily Weather History Graph

Daily Weather History Graph

Search for Another Location

Airport or City:

Trip Planner

Search our weather history database for the weather conditions in past years. The results will help you decide how hot, cold, wet, or windy it might be!

Date:

Astronomy

Oct. 17, 2012 Rise Set
Actual Time 7:39 AM CEST 6:22 PM CEST
Civil Twilight 7:07 AM CEST 6:54 PM CEST
Nautical Twilight 6:31 AM CEST 7:30 PM CEST
Astronomical Twilight 5:55 AM CEST 8:06 PM CEST
Moon 10:07 AM CEST (10/17) 7:28 PM CEST (10/17)
Length of Visible Light 11h 46m
Length of Day
10h 43m
Waxing Crescent, 5% of the Moon is Illuminated
Oct 17
Waxing Crescent
Oct 22
First Quarter
Oct 29
Full
Nov 7
Last Quarter
Nov 13
New

Hourly Weather History & Observations

Time (CEST) Temp. Windchill Dew Point Humidity Pressure Visibility Wind Dir Wind Speed Gust Speed Precip Events Conditions
12:00 AM 47 °F - 40 °F 71% 30.00 in 17 mi South 4.5 mph - - Rain Light Rain
12:20 AM 46.4 °F 45.2 °F 39.2 °F 76% 29.98 in 1.3 mi SSE 3.5 mph - N/A   Unknown
12:50 AM 46.4 °F 45.2 °F 42.8 °F 87% 29.98 in 1.3 mi SE 3.5 mph - N/A Rain Light Rain
1:00 AM 46 °F - 42 °F 79% 30.01 in 19 mi SE 4.5 mph - - Rain Light Rain
1:20 AM 46.4 °F - 42.8 °F 87% 29.98 in 1.3 mi Variable 2.3 mph - N/A   Unknown
1:50 AM 44.6 °F - 44.6 °F 100% 29.98 in 1.3 mi ESE 2.3 mph - N/A   Unknown
2:00 AM 45 °F - 43 °F 89% 30.01 in 19 mi ESE 2.2 mph - - Rain Rain
2:20 AM 46.4 °F 45.2 °F 42.8 °F 87% 29.98 in 1.3 mi NE 3.5 mph - N/A   Unknown
2:50 AM 44.6 °F 42.2 °F 44.6 °F 100% 29.98 in 1.3 mi ENE 4.6 mph - N/A   Unknown
3:00 AM 45 °F - 43 °F 90% 30.02 in 15 mi ENE 4.5 mph - -   Overcast
3:20 AM 44.6 °F 43.1 °F 44.6 °F 100% 29.98 in 1.3 mi East 3.5 mph - N/A   Unknown
3:50 AM 46.4 °F 44.3 °F 42.8 °F 87% 29.98 in 1.3 mi SE 4.6 mph - N/A   Unknown
4:00 AM 46 °F - 42 °F 82% 30.00 in 16 mi SE 6.7 mph - -   Overcast
4:20 AM 44.6 °F - 42.8 °F 93% 29.98 in 1.3 mi Variable 2.3 mph - N/A   Unknown
4:50 AM 44.6 °F - 42.8 °F 93% 29.98 in 1.3 mi Variable 2.3 mph - N/A   Unknown
5:20 AM 44.6 °F - 42.8 °F 93% 29.98 in 1.3 mi Variable 2.3 mph - N/A   Unknown
5:50 AM 44.6 °F 41.4 °F 42.8 °F 93% 29.98 in - ESE 5.8 mph - N/A   Clear
6:00 AM 46 °F - 43 °F 84% 30.00 in 19 mi ESE 6.7 mph - -   Partly Cloudy
6:20 AM 44.6 °F - 41.0 °F 87% 29.98 in - SSE 2.3 mph - N/A   Clear
6:50 AM 44.6 °F 40.7 °F 42.8 °F 93% 29.98 in - ESE 6.9 mph - N/A   Clear
7:00 AM 44 °F - 42 °F 89% 30.00 in 25 mi ESE 4.5 mph - -   Partly Cloudy
7:20 AM 44.6 °F 43.1 °F 42.8 °F 93% 29.98 in - SE 3.5 mph - N/A   Clear
7:50 AM 46.4 °F 45.2 °F 42.8 °F 87% 29.98 in - SE 3.5 mph - N/A   Clear
8:00 AM 46 °F - 42 °F 82% 29.99 in 22 mi SSE 4.5 mph - -   Mostly Cloudy
8:20 AM 44.6 °F - 42.8 °F 93% 29.98 in - SE 2.3 mph - N/A   Clear
8:50 AM 46.4 °F 44.3 °F 42.8 °F 87% 29.98 in - ESE 4.6 mph - N/A   Clear
9:00 AM 47 °F - 43 °F 80% 29.99 in 25 mi ESE 2.2 mph - -   Scattered Clouds
9:20 AM 50.0 °F - 41.0 °F 71% 29.98 in - SE 6.9 mph - N/A   Clear
9:50 AM 50.0 °F - 41.0 °F 71% 29.98 in - SE 5.8 mph - N/A   Clear
10:00 AM 51 °F - 43 °F 65% 29.98 in 28 mi SE 8.9 mph - -   Scattered Clouds
10:20 AM 53.6 °F - 42.8 °F 67% 29.98 in - SE 8.1 mph - N/A   Clear
10:50 AM 53.6 °F - 41.0 °F 62% 29.98 in - SSE 8.1 mph - N/A   Clear
11:20 AM 55.4 °F - 42.8 °F 63% 29.98 in - SE 8.1 mph - N/A   Clear
11:50 AM 59.0 °F - 42.8 °F 55% 29.98 in - SE 5.8 mph - N/A   Clear
12:00 PM 58 °F - 45 °F 52% 29.96 in 28 mi ESE 6.7 mph - -   Scattered Clouds
12:20 PM 60.8 °F - 42.8 °F 52% 29.98 in - ESE 6.9 mph - N/A   Clear
12:50 PM 60.8 °F - 44.6 °F 55% 29.95 in - ESE 8.1 mph - N/A   Clear
1:00 PM 61 °F - 46 °F 47% 29.94 in 47 mi ESE 8.9 mph - -   Scattered Clouds
1:20 PM 62.6 °F - 44.6 °F 52% 29.95 in - ESE 8.1 mph - N/A   Clear
1:50 PM 64.4 °F - 46.4 °F 52% 29.95 in - ESE 6.9 mph - N/A   Clear
2:20 PM 66.2 °F - 44.6 °F 46% 29.95 in - ESE 4.6 mph - N/A   Clear
2:50 PM 64.4 °F - 44.6 °F 49% 29.95 in - ESE 3.5 mph - N/A   Clear
3:20 PM 66.2 °F - 46.4 °F 49% 29.95 in - South 3.5 mph - N/A   Clear
3:50 PM 66.2 °F - 44.6 °F 46% 29.95 in - Variable 1.2 mph - N/A   Clear
4:00 PM 64 °F - 48 °F 46% 29.93 in 47 mi NNE 2.2 mph - -   Scattered Clouds
4:20 PM 64.4 °F - 46.4 °F 52% 29.95 in - NE 3.5 mph - N/A   Clear
4:50 PM 62.6 °F - 48.2 °F 59% 29.95 in - ESE 4.6 mph - N/A   Clear
5:20 PM 60.8 °F - 48.2 °F 63% 29.95 in - ESE 6.9 mph - N/A   Clear
5:50 PM 59.0 °F - 48.2 °F 67% 29.95 in - ESE 6.9 mph - N/A   Clear
6:00 PM 58 °F - 49 °F 65% 29.93 in 47 mi ESE 4.5 mph - -   Scattered Clouds
6:20 PM 57.2 °F - 48.2 °F 72% 29.95 in - ESE 5.8 mph - N/A   Clear
6:50 PM 57.2 °F - 46.4 °F 67% 29.95 in - SE 5.8 mph - N/A   Clear
7:00 PM 56 °F - 48 °F 67% 29.95 in 47 mi SE 6.7 mph - -   Clear
7:20 PM 57.2 °F - 46.4 °F 67% 29.95 in - SE 4.6 mph - N/A   Clear
7:50 PM 55.4 °F - 46.4 °F 72% 29.95 in - SE 4.6 mph - N/A   Clear
8:00 PM 56 °F - 49 °F 70% 29.95 in 47 mi SE 8.9 mph - -   Clear
8:20 PM 55.4 °F - 46.4 °F 72% 29.95 in - SSE 3.5 mph - N/A   Clear
8:50 PM 53.6 °F - 46.4 °F 77% 29.95 in - SE 3.5 mph - N/A   Clear
9:00 PM 55 °F - 48 °F 71% 29.96 in 47 mi SSE 4.5 mph - -   Clear
9:20 PM 51.8 °F - 48.2 °F 88% 29.98 in 1.3 mi Variable 1.2 mph - N/A   Unknown
9:50 PM 50.0 °F - 46.4 °F 87% 29.98 in 1.3 mi Variable 2.3 mph - N/A   Unknown
10:00 PM 48 °F - 45 °F 87% 29.99 in 19 mi NW 2.2 mph - -  
10:20 PM 48.2 °F - 46.4 °F 93% 29.98 in 1.3 mi Variable 1.2 mph - N/A   Unknown
10:50 PM 48.2 °F - 46.4 °F 93% 29.98 in 1.3 mi Variable 1.2 mph - N/A   Unknown
11:20 PM 46.4 °F - 46.4 °F 100% 29.98 in 1.3 mi East 1.2 mph - N/A   Unknown
11:50 PM 46.4 °F - 46.4 °F 100% 29.95 in 1.3 mi East 2.3 mph - N/A   Unknown